Find Qianfan Jigui 06-13

NORAD ID: 62797 Int'l Des: 2025-016 Owner: YUANX Country: CN Constellation: qianfan operational
LEOCIRCULARPOLAR

实时位置

正在加载3D地球...

关于 Qianfan Jigui 06-13

正在加载描述...

即将过境

Passes for default location (London). Set your location on the main map for personalized predictions.

高度历史

Loading altitude history...

两行轨道根数

1 62797U 25016N 26106.93095080 .00000023 00000-0 17152-4 0 9999
2 62797 88.9686 90.0650 0014738 352.8101 7.2836 13.51008813 64164
Epoch: Apr 16, 2026 • Age: 11 hours

当前状态

高度 1079.3 km
速度 7.32 km/s
星下点 72.14°N, 107.24°E
发射日期 Jan 23, 2025
运行时间 1.2 years
类型 internet

技术详情

分类 Payload
质量 267.00 kg
干质量 267.00 kg
总质量 267.00 kg
长度 0.30 m
直径 3.00 m
跨度 10.00 m
形状 Box+pan
制造商 SECM
平台类型 Qianfan
阶段状态 In Orbit
所有者/国家 YUANX/CN

Most Searched